Location: Eagle Observatory
(42.5300°N, 88.2800°W)
Time: 16:47:40
(UTC-06:00)

Hubble Space Telescope - Visible Passes

Search period start: 22 February 2018 00:00
Search period end: 04 March 2018 00:00
Orbit: 537 x 541 km, 28.5° (Epoch: 21 February)

Date Brightness Start Highest point End Pass type
(mag) Time Alt. Az. Time Alt. Az. Time Alt. Az.
22 Feb 3.3 06:01:04 10° SSW 06:02:27 11° S 06:03:51 10° SSE visible
23 Feb 3.3 05:50:45 10° SSW 05:52:02 11° S 05:53:19 10° SSE visible
24 Feb 3.3 05:40:37 10° SSW 05:41:37 11° S 05:42:38 10° S visible
25 Feb 3.3 05:31:05 10° S 05:31:11 10° S 05:31:18 10° S visible
